QPF
0.00 0.00 0.00 0.00 0.00 0.00 0.00 0.00 0.00 0.00 0.00 0.00 0.00 0.00 0.00 0.00 0.00 0.00 0.00 0.00 0.00 0.00 0.00 0.00 0.00 0.00 0.00 0.00 0.00 0.00 0.00 0.00 0.00 0.00 0.00 0.00 0.00 0.00 0.00 0.00 0.00 0.00 0.01
0.00 0.00 0.00 0.00 0.00 0.00 0.00 0.00 0.00 0.00 0.00 0.00 0.00 0.00 0.00 0.00 0.00 0.00 0.00 0.00 0.00 0.00 0.00 0.00 0.00 0.00 0.00 0.00 0.00 0.00 0.00 0.00 0.00 0.00 0.00 0.00 0.00 0.00 0.00 0.00 0.00 0.01 0.01
0.00 0.00 0.00 0.00 0.00 0.00 0.00 0.00 0.00 0.00 0.00 0.00 0.00 0.00 0.00 0.00 0.00 0.00 0.00 0.00 0.00 0.00 0.00 0.00 0.00 0.00 0.00 0.00 0.00 0.00 0.00 0.00 0.00 0.00 0.00 0.00 0.00 0.00 0.00 0.00 0.01 0.01 0.01
0.00 0.00 0.00 0.00 0.00 0.00 0.00 0.00 0.00 0.00 0.00 0.00 0.00 0.00 0.00 0.00 0.00 0.00 0.00 0.00 0.00 0.00 0.00 0.00 0.00 0.00 0.00 0.00 0.00 0.00 0.00 0.00 0.00 0.00 0.00 0.00 0.00 0.00 0.00 0.01 0.01 0.01 0.02
0.00 0.00 0.00 0.00 0.00 0.00 0.00 0.00 0.01 0.00 0.00 0.01 0.00 0.00 0.00 0.00 0.00 0.00 0.00 0.00 0.00 0.00 0.00 0.00 0.00 0.00 0.00 0.00 0.00 0.00 0.00 0.00 0.00 0.00 0.00 0.00 0.00 0.00 0.01 0.01 0.00 0.00 0.02
0.00 0.00 0.00 0.00 0.01 0.01 0.01 0.01 0.00 0.00 0.01 0.00 0.00 0.00 0.00 0.00 0.00 0.00 0.00 0.00 0.00 0.00 0.00 0.00 0.00 0.00 0.00 0.00 0.00 0.00 0.00 0.00 0.00 0.00 0.00 0.00 0.00 0.00 0.00 0.00 0.00 0.00 0.01
0.00 0.00 0.00 0.00 0.01 0.01 0.01 0.01 0.01 0.01 0.00 0.00 0.00 0.00 0.00 0.00 0.00 0.00 0.00 0.00 0.00 0.00 0.00 0.00 0.00 0.00 0.00 0.00 0.00 0.00 0.00 0.00 0.00 0.00 0.00 0.00 0.00 0.00 0.00 0.00 0.00 0.00 0.01
0.00 0.00 0.00 0.00 0.00 0.00 0.00 0.01 0.00 0.00 0.00 0.00 0.00 0.00 0.00 0.00 0.00 0.00 0.00 0.00 0.00 0.00 0.00 0.00 0.00 0.00 0.00 0.00 0.00 0.00 0.00 0.00 0.00 0.00 0.00 0.00 0.00 0.00 0.00 0.00 0.00 0.00 0.00
0.00 0.00 0.00 0.00 0.00 0.00 0.00 0.00 0.00 0.00 0.00 0.00 0.01 0.00 0.00 0.00 0.00 0.00 0.00 0.00 0.00 0.00 0.00 0.00 0.00 0.00 0.00 0.00 0.00 0.00 0.00 0.00 0.00 0.00 0.00 0.00 0.00 0.00 0.00 0.00 0.00 0.01 0.01
0.00 0.00 0.00 0.00 0.00 0.00 0.00 0.00 0.00 0.00 0.00 0.00 0.00 0.00 0.01 0.00 0.00 0.00 0.00 0.00 0.00 0.00 0.00 0.00 0.00 0.00 0.00 0.00 0.00 0.00 0.00 0.00 0.00 0.00 0.00 0.00 0.00 0.00 0.00 0.00 0.00 0.00 0.01
0.00 0.00 0.00 0.00 0.00 0.00 0.00 0.00 0.00 0.00 0.00 0.00 0.00 0.00 0.01 0.01 0.00 0.00 0.00 0.00 0.00 0.00 0.00 0.00 0.00 0.00 0.00 0.00 0.00 0.00 0.00 0.00 0.01 0.01 0.01 0.01 0.00 0.00 0.00 0.00 0.00 0.00 0.00
0.00 0.00 0.00 0.00 0.00 0.00 0.00 0.00 0.00 0.00 0.00 0.00 0.00 0.00 0.00 0.00 0.00 0.00 0.00 0.00 0.00 0.00 0.00 0.00 0.00 0.00 0.00 0.00 0.00 0.00 0.00 0.01 0.01 0.01 0.01 0.01 0.00 0.00 0.00 0.00 0.00 0.00 0.01
0.00 0.00 0.00 0.00 0.00 0.00 0.00 0.00 0.00 0.00 0.00 0.00 0.00 0.00 0.00 0.00 0.00 0.00 0.00 0.00 0.00 0.00 0.00 0.00 0.00 0.00 0.00 0.00 0.00 0.00 0.01 0.02 0.02 0.02 0.02 0.01 0.00 0.00 0.00 0.00 0.01 0.01 0.01
0.00 0.00 0.00 0.00 0.00 0.00 0.00 0.00 0.00 0.00 0.01 0.00 0.00 0.00 0.00 0.00 0.00 0.00 0.00 0.00 0.00 0.00 0.00 0.00 0.00 0.00 0.00 0.00 0.00 0.01 0.01 0.03 0.03 0.03 0.02 0.01 0.01 0.00 0.00 0.00 0.00 0.01 0.01
0.00 0.00 0.00 0.00 0.00 0.00 0.00 0.00 0.00 0.00 0.00 0.00 0.00 0.00 0.00 0.00 0.00 0.00 0.00 0.00 0.00 0.00 0.00 0.00 0.00 0.00 0.00 0.00 0.00 0.01 0.02 0.03 0.03 0.02 0.01 0.01 0.01 0.01 0.01 0.01 0.01 0.00 0.01
0.00 0.00 0.00 0.00 0.00 0.00 0.00 0.00 0.00 0.00 0.00 0.00 0.00 0.00 0.00 0.00 0.00 0.00 0.00 0.00 0.00 0.00 0.00 0.00 0.00 0.00 0.00 0.00 0.01 0.01 0.01 0.02 0.02 0.02 0.01 0.01 0.01 0.01 0.01 0.01 0.01 0.01 0.01
0.00 0.00 0.00 0.00 0.00 0.00 0.00 0.00 0.00 0.00 0.00 0.00 0.00 0.00 0.00 0.00 0.00 0.00 0.00 0.00 0.00 0.00 0.00 0.00 0.00 0.00 0.00 0.00 0.01 0.01 0.01 0.02 0.02 0.02 0.01 0.00 0.00 0.01 0.01 0.01 0.00 0.00 0.01
0.00 0.00 0.00 0.00 0.00 0.00 0.00 0.00 0.00 0.00 0.00 0.00 0.00 0.00 0.00 0.00 0.00 0.00 0.00 0.00 0.00 0.00 0.00 0.00 0.00 0.00 0.00 0.00 0.00 0.01 0.01 0.02 0.02 0.02 0.01 0.00 0.00 0.01 0.01 0.01 0.00 0.00 0.00
0.00 0.00 0.00 0.00 0.00 0.00 0.00 0.00 0.00 0.00 0.00 0.00 0.00 0.00 0.00 0.00 0.00 0.00 0.00 0.00 0.00 0.00 0.00 0.00 0.00 0.00 0.00 0.00 0.00 0.01 0.01 0.01 0.01 0.02 0.01 0.01 0.01 0.01 0.01 0.01 0.01 0.00 0.00
0.00 0.00 0.00 0.00 0.00 0.00 0.00 0.00 0.00 0.00 0.00 0.00 0.00 0.00 0.00 0.00 0.00 0.00 0.00 0.00 0.00 0.00 0.00 0.00 0.00 0.00 0.00 0.00 0.00 0.01 0.01 0.01 0.02 0.01 0.01 0.01 0.01 0.01 0.01 0.01 0.00 0.00 0.00
0.00 0.00 0.00 0.00 0.00 0.00 0.00 0.00 0.00 0.00 0.00 0.00 0.00 0.00 0.00 0.00 0.00 0.00 0.00 0.00 0.00 0.00 0.00 0.00 0.00 0.00 0.00 0.00 0.00 0.00 0.01 0.01 0.02 0.01 0.01 0.01 0.01 0.01 0.01 0.01 0.00 0.00 0.00
0.00 0.00 0.00 0.00 0.00 0.00 0.00 0.00 0.00 0.00 0.00 0.00 0.00 0.00 0.00 0.00 0.00 0.00 0.00 0.00 0.00 0.00 0.00 0.00 0.00 0.00 0.00 0.00 0.00 0.00 0.00 0.01 0.01 0.01 0.01 0.01 0.01 0.01 0.01 0.01 0.00 0.01 0.01
0.00 0.00 0.00 0.00 0.00 0.00 0.00 0.00 0.00 0.00 0.00 0.00 0.00 0.00 0.00 0.00 0.00 0.00 0.00 0.00 0.00 0.00 0.00 0.00 0.00 0.00 0.00 0.01 0.01 0.01 0.00 0.01 0.01 0.01 0.01 0.01 0.01 0.01 0.01 0.00 0.00 0.01 0.01
0.00 0.00 0.00 0.00 0.00 0.00 0.00 0.00 0.00 0.00 0.00 0.00 0.00 0.00 0.00 0.00 0.00 0.00 0.00 0.00 0.00 0.00 0.00 0.00 0.00 0.01 0.01 0.01 0.01 0.00 0.01 0.00 0.00 0.01 0.01 0.01 0.01 0.01 0.01 0.00 0.00 0.01 0.01
0.00 0.00 0.00 0.00 0.00 0.00 0.00 0.00 0.00 0.00 0.00 0.00 0.00 0.00 0.00 0.00 0.00 0.00 0.00 0.00 0.00 0.00 0.00 0.00 0.00 0.01 0.01 0.01 0.00 0.00 0.01 0.01 0.00 0.01 0.01 0.01 0.01 0.01 0.01 0.00 0.01 0.01 0.01
0.00 0.00 0.00 0.00 0.00 0.00 0.00 0.00 0.00 0.00 0.00 0.00 0.00 0.00 0.00 0.00 0.00 0.00 0.00 0.00 0.00 0.00 0.00 0.00 0.00 0.01 0.01 0.01 0.01 0.00 0.00 0.01 0.01 0.01 0.01 0.01 0.01 0.01 0.01 0.01 0.00 0.01 0.01
MSLP
1018.97 1018.60 1018.24 1017.91 1017.63 1017.44 1017.35 1017.37 1017.49 1017.69 1017.92 1018.15 1018.33 1018.44 1018.47 1018.41 1018.28 1018.13 1017.98 1017.86 1017.79 1017.76 1017.76 1017.76 1017.75 1017.70 1017.59 1017.43 1017.22 1016.98 1016.72 1016.47 1016.23 1016.00 1015.76 1015.51 1015.23 1014.90 1014.52 1014.10 1013.66 1013.22 1012.80
1019.52 1019.15 1018.77 1018.39 1018.05 1017.77 1017.58 1017.52 1017.58 1017.74 1017.98 1018.24 1018.47 1018.64 1018.71 1018.68 1018.57 1018.40 1018.22 1018.05 1017.93 1017.86 1017.84 1017.85 1017.86 1017.85 1017.78 1017.67 1017.50 1017.29 1017.06 1016.83 1016.61 1016.41 1016.22 1016.03 1015.80 1015.53 1015.20 1014.82 1014.38 1013.91 1013.44
1019.97 1019.64 1019.28 1018.89 1018.51 1018.17 1017.91 1017.77 1017.76 1017.90 1018.13 1018.41 1018.70 1018.93 1019.06 1019.07 1018.97 1018.80 1018.58 1018.36 1018.18 1018.06 1017.99 1017.98 1017.98 1017.97 1017.93 1017.84 1017.70 1017.51 1017.31 1017.11 1016.93 1016.77 1016.63 1016.50 1016.34 1016.15 1015.89 1015.55 1015.15 1014.69 1014.21
1020.32 1020.08 1019.79 1019.43 1019.04 1018.66 1018.35 1018.14 1018.08 1018.17 1018.40 1018.70 1019.02 1019.31 1019.49 1019.55 1019.48 1019.30 1019.06 1018.79 1018.55 1018.37 1018.24 1018.18 1018.15 1018.13 1018.08 1018.00 1017.87 1017.70 1017.52 1017.34 1017.19 1017.07 1016.98 1016.90 1016.82 1016.70 1016.51 1016.24 1015.89 1015.46 1014.98
1020.60 1020.49 1020.30 1020.01 1019.65 1019.26 1018.91 1018.65 1018.53 1018.58 1018.79 1019.09 1019.44 1019.77 1020.00 1020.11 1020.07 1019.90 1019.64 1019.34 1019.05 1018.80 1018.61 1018.49 1018.41 1018.35 1018.29 1018.19 1018.06 1017.91 1017.74 1017.57 1017.44 1017.35 1017.29 1017.25 1017.22 1017.15 1017.02 1016.80 1016.50 1016.11 1015.65
1020.82 1020.86 1020.81 1020.62 1020.32 1019.95 1019.58 1019.27 1019.11 1019.12 1019.28 1019.57 1019.93 1020.28 1020.55 1020.70 1020.70 1020.55 1020.29 1019.98 1019.65 1019.35 1019.11 1018.93 1018.80 1018.70 1018.60 1018.49 1018.34 1018.18 1018.01 1017.85 1017.72 1017.63 1017.58 1017.55 1017.53 1017.48 1017.38 1017.20 1016.92 1016.56 1016.12
1020.98 1021.19 1021.28 1021.21 1020.99 1020.66 1020.29 1019.97 1019.77 1019.72 1019.85 1020.11 1020.46 1020.82 1021.11 1021.29 1021.32 1021.21 1020.97 1020.66 1020.33 1020.00 1019.72 1019.50 1019.32 1019.18 1019.04 1018.90 1018.74 1018.56 1018.37 1018.19 1018.05 1017.93 1017.86 1017.82 1017.78 1017.72 1017.60 1017.42 1017.15 1016.80 1016.37
1021.06 1021.43 1021.66 1021.71 1021.59 1021.32 1020.98 1020.66 1020.44 1020.36 1020.45 1020.68 1021.00 1021.35 1021.65 1021.85 1021.91 1021.84 1021.64 1021.35 1021.02 1020.70 1020.40 1020.15 1019.95 1019.77 1019.60 1019.42 1019.23 1019.03 1018.81 1018.61 1018.43 1018.28 1018.16 1018.07 1017.98 1017.87 1017.72 1017.51 1017.22 1016.86 1016.43
1021.02 1021.52 1021.88 1022.05 1022.03 1021.85 1021.57 1021.28 1021.06 1020.97 1021.03 1021.22 1021.51 1021.84 1022.13 1022.34 1022.43 1022.39 1022.23 1021.98 1021.69 1021.38 1021.10 1020.84 1020.62 1020.42 1020.22 1020.02 1019.79 1019.56 1019.31 1019.07 1018.85 1018.65 1018.48 1018.33 1018.18 1018.01 1017.81 1017.55 1017.22 1016.84 1016.40
1020.81 1021.41 1021.88 1022.16 1022.25 1022.17 1021.98 1021.76 1021.58 1021.51 1021.56 1021.72 1021.98 1022.27 1022.54 1022.74 1022.84 1022.82 1022.70 1022.50 1022.26 1021.99 1021.73 1021.49 1021.27 1021.05 1020.83 1020.60 1020.36 1020.09 1019.82 1019.55 1019.29 1019.05 1018.83 1018.62 1018.41 1018.19 1017.92 1017.62 1017.26 1016.84 1016.38
1020.41 1021.07 1021.62 1022.00 1022.20 1022.24 1022.17 1022.05 1021.96 1021.93 1021.99 1022.15 1022.37 1022.62 1022.85 1023.03 1023.12 1023.12 1023.03 1022.87 1022.67 1022.46 1022.23 1022.02 1021.81 1021.59 1021.37 1021.12 1020.86 1020.57 1020.28 1019.99 1019.71 1019.45 1019.19 1018.95 1018.70 1018.43 1018.13 1017.79 1017.40 1016.96 1016.49
1019.83 1020.51 1021.11 1021.58 1021.90 1022.07 1022.14 1022.16 1022.17 1022.22 1022.32 1022.48 1022.67 1022.88 1023.06 1023.19 1023.26 1023.25 1023.18 1023.06 1022.91 1022.74 1022.57 1022.39 1022.20 1022.00 1021.77 1021.52 1021.25 1020.96 1020.66 1020.37 1020.09 1019.82 1019.56 1019.31 1019.04 1018.75 1018.43 1018.06 1017.66 1017.21 1016.74
1019.09 1019.77 1020.41 1020.95 1021.38 1021.69 1021.91 1022.08 1022.22 1022.37 1022.52 1022.69 1022.87 1023.03 1023.15 1023.23 1023.26 1023.23 1023.17 1023.08 1022.97 1022.85 1022.73 1022.59 1022.43 1022.25 1022.04 1021.79 1021.52 1021.24 1020.95 1020.67 1020.40 1020.14 1019.90 1019.65 1019.39 1019.11 1018.78 1018.41 1018.00 1017.55 1017.07
1018.24 1018.91 1019.57 1020.17 1020.70 1021.15 1021.53 1021.85 1022.13 1022.38 1022.60 1022.79 1022.95 1023.06 1023.13 1023.15 1023.13 1023.09 1023.02 1022.96 1022.89 1022.82 1022.74 1022.65 1022.53 1022.37 1022.17 1021.93 1021.67 1021.40 1021.13 1020.86 1020.62 1020.39 1020.17 1019.95 1019.70 1019.42 1019.10 1018.73 1018.31 1017.87 1017.40
1017.34 1017.99 1018.66 1019.31 1019.93 1020.50 1021.03 1021.49 1021.90 1022.25 1022.54 1022.75 1022.90 1022.97 1022.99 1022.96 1022.91 1022.84 1022.78 1022.74 1022.71 1022.69 1022.66 1022.61 1022.52 1022.39 1022.20 1021.98 1021.73 1021.47 1021.21 1020.97 1020.74 1020.54 1020.34 1020.13 1019.90 1019.62 1019.30 1018.92 1018.50 1018.04 1017.57
1016.43 1017.07 1017.74 1018.43 1019.12 1019.80 1020.44 1021.03 1021.55 1021.99 1022.33 1022.57 1022.72 1022.77 1022.75 1022.69 1022.62 1022.55 1022.50 1022.48 1022.49 1022.52 1022.53 1022.52 1022.46 1022.35 1022.17 1021.96 1021.71 1021.45 1021.19 1020.96 1020.75 1020.56 1020.37 1020.17 1019.93 1019.64 1019.30 1018.90 1018.46 1017.99 1017.51
1015.56 1016.18 1016.86 1017.57 1018.32 1019.06 1019.79 1020.48 1021.08 1021.59 1021.99 1022.25 1022.41 1022.46 1022.43 1022.36 1022.29 1022.23 1022.21 1022.23 1022.28 1022.35 1022.40 1022.42 1022.38 1022.27 1022.10 1021.87 1021.61 1021.34 1021.09 1020.85 1020.64 1020.44 1020.24 1020.02 1019.76 1019.45 1019.07 1018.64 1018.16 1017.66 1017.16
1014.73 1015.34 1016.02 1016.75 1017.52 1018.31 1019.10 1019.84 1020.51 1021.07 1021.50 1021.80 1021.98 1022.05 1022.04 1021.99 1021.94 1021.92 1021.94 1022.01 1022.10 1022.20 1022.28 1022.30 1022.26 1022.14 1021.96 1021.71 1021.43 1021.14 1020.86 1020.61 1020.38 1020.17 1019.94 1019.70 1019.40 1019.04 1018.62 1018.14 1017.63 1017.10 1016.58
1013.95 1014.55 1015.22 1015.95 1016.73 1017.54 1018.36 1019.14 1019.84 1020.44 1020.91 1021.24 1021.45 1021.56 1021.59 1021.59 1021.60 1021.63 1021.69 1021.80 1021.92 1022.04 1022.12 1022.14 1022.08 1021.94 1021.72 1021.44 1021.13 1020.82 1020.52 1020.24 1019.99 1019.75 1019.50 1019.22 1018.89 1018.49 1018.02 1017.50 1016.95 1016.39 1015.85
1013.23 1013.81 1014.46 1015.18 1015.96 1016.77 1017.59 1018.38 1019.11 1019.73 1020.23 1020.60 1020.86 1021.02 1021.11 1021.17 1021.23 1021.32 1021.43 1021.57 1021.71 1021.83 1021.90 1021.89 1021.79 1021.61 1021.34 1021.03 1020.69 1020.35 1020.03 1019.73 1019.47 1019.21 1018.94 1018.64 1018.28 1017.85 1017.35 1016.80 1016.22 1015.65 1015.10
1012.55 1013.11 1013.75 1014.45 1015.21 1016.01 1016.82 1017.61 1018.34 1018.98 1019.51 1019.92 1020.22 1020.43 1020.59 1020.71 1020.84 1020.97 1021.12 1021.27 1021.41 1021.51 1021.54 1021.48 1021.33 1021.10 1020.79 1020.44 1020.08 1019.72 1019.39 1019.10 1018.84 1018.58 1018.31 1018.00 1017.63 1017.19 1016.68 1016.12 1015.54 1014.96 1014.42
1011.92 1012.46 1013.07 1013.75 1014.50 1015.28 1016.08 1016.86 1017.59 1018.23 1018.77 1019.21 1019.55 1019.82 1020.03 1020.21 1020.37 1020.54 1020.70 1020.85 1020.97 1021.02 1021.00 1020.89 1020.68 1020.40 1020.05 1019.68 1019.30 1018.95 1018.64 1018.36 1018.12 1017.88 1017.63 1017.33 1016.97 1016.54 1016.05 1015.50 1014.93 1014.37 1013.84
1011.33 1011.85 1012.44 1013.11 1013.84 1014.61 1015.39 1016.16 1016.87 1017.51 1018.05 1018.51 1018.88 1019.17 1019.42 1019.63 1019.82 1019.99 1020.15 1020.27 1020.34 1020.34 1020.26 1020.09 1019.83 1019.50 1019.14 1018.76 1018.39 1018.07 1017.79 1017.55 1017.34 1017.14 1016.92 1016.65 1016.32 1015.91 1015.43 1014.91 1014.37 1013.83 1013.33
1010.78 1011.29 1011.87 1012.53 1013.25 1014.01 1014.77 1015.52 1016.21 1016.83 1017.36 1017.81 1018.18 1018.49 1018.74 1018.96 1019.15 1019.31 1019.44 1019.52 1019.54 1019.48 1019.34 1019.11 1018.82 1018.47 1018.10 1017.73 1017.40 1017.11 1016.88 1016.69 1016.53 1016.37 1016.19 1015.95 1015.64 1015.25 1014.80 1014.30 1013.78 1013.27 1012.79
1010.26 1010.76 1011.35 1012.02 1012.73 1013.48 1014.23 1014.94 1015.60 1016.19 1016.70 1017.12 1017.47 1017.76 1018.00 1018.20 1018.37 1018.50 1018.59 1018.62 1018.59 1018.48 1018.28 1018.02 1017.70 1017.35 1016.99 1016.66 1016.37 1016.13 1015.95 1015.81 1015.70 1015.57 1015.41 1015.18 1014.88 1014.51 1014.07 1013.59 1013.09 1012.60 1012.14
1009.75 1010.27 1010.87 1011.55 1012.27 1013.00 1013.72 1014.41 1015.02 1015.57 1016.03 1016.41 1016.73 1016.98 1017.20 1017.36 1017.50 1017.59 1017.63 1017.62 1017.54 1017.39 1017.16 1016.88 1016.55 1016.21 1015.88 1015.59 1015.35 1015.16 1015.02 1014.92 1014.83 1014.71 1014.55 1014.32 1014.02 1013.63 1013.19 1012.71 1012.21 1011.73 1011.28
Thickness
5723 5725 5727 5727 5727 5726 5726 5725 5724 5724 5723 5721 5719 5717 5716 5715 5715 5714 5713 5712 5711 5709 5708 5706 5704 5702 5700 5698 5696 5694 5692 5691 5691 5690 5689 5691 5693 5693 5694 5696 5697 5699 5702
5718 5721 5722 5723 5724 5723 5723 5723 5722 5722 5721 5719 5718 5716 5715 5713 5712 5712 5711 5710 5709 5707 5706 5704 5702 5700 5697 5696 5694 5691 5689 5687 5687 5684 5681 5679 5683 5688 5691 5692 5693 5695 5698
5715 5716 5718 5719 5720 5720 5721 5722 5721 5721 5720 5718 5717 5715 5713 5711 5710 5709 5708 5708 5707 5706 5704 5702 5700 5697 5695 5693 5691 5689 5686 5683 5683 5681 5678 5673 5671 5676 5684 5686 5688 5691 5693
5715 5716 5716 5716 5717 5719 5720 5720 5719 5718 5718 5717 5715 5712 5709 5706 5705 5705 5705 5705 5705 5704 5702 5700 5698 5696 5693 5691 5689 5688 5684 5682 5679 5678 5677 5675 5673 5671 5673 5679 5683 5686 5689
5714 5714 5715 5715 5717 5717 5717 5717 5717 5716 5715 5714 5713 5710 5707 5705 5704 5704 5703 5703 5703 5702 5700 5698 5696 5694 5692 5689 5687 5685 5683 5680 5677 5676 5674 5673 5672 5671 5669 5670 5675 5680 5685
5713 5713 5714 5714 5714 5714 5714 5714 5714 5713 5712 5711 5710 5708 5706 5704 5702 5701 5700 5699 5699 5699 5698 5696 5694 5692 5690 5687 5685 5683 5681 5679 5677 5675 5673 5671 5670 5669 5668 5667 5669 5672 5679
5710 5710 5710 5710 5710 5711 5711 5711 5710 5709 5709 5708 5707 5705 5704 5702 5700 5698 5697 5696 5695 5694 5694 5693 5691 5689 5687 5685 5683 5681 5679 5677 5675 5674 5672 5671 5671 5670 5668 5667 5667 5669 5674
5708 5709 5709 5708 5708 5709 5708 5708 5707 5706 5705 5704 5703 5702 5701 5699 5697 5696 5694 5693 5692 5691 5691 5690 5688 5687 5685 5683 5681 5679 5677 5675 5674 5673 5672 5671 5671 5670 5669 5668 5667 5666 5669
5707 5707 5707 5707 5706 5706 5706 5705 5704 5703 5702 5701 5700 5699 5698 5696 5694 5693 5692 5690 5690 5689 5688 5687 5685 5683 5681 5679 5677 5675 5673 5672 5671 5670 5670 5669 5669 5669 5669 5668 5667 5665 5664
5706 5705 5705 5704 5704 5704 5704 5703 5702 5700 5699 5698 5697 5696 5694 5692 5691 5690 5688 5687 5686 5685 5684 5683 5681 5679 5677 5675 5673 5670 5668 5667 5666 5666 5666 5666 5667 5667 5667 5666 5666 5666 5664
5705 5704 5703 5702 5701 5701 5700 5699 5698 5697 5695 5694 5693 5691 5690 5688 5687 5685 5684 5683 5682 5681 5679 5677 5676 5673 5671 5670 5667 5665 5663 5662 5661 5661 5661 5662 5662 5663 5663 5663 5663 5663 5663
5705 5703 5701 5699 5698 5697 5696 5695 5694 5693 5692 5690 5688 5687 5685 5684 5682 5681 5679 5678 5677 5676 5674 5672 5670 5668 5666 5663 5661 5659 5657 5655 5654 5654 5654 5655 5657 5657 5658 5659 5660 5660 5661
5702 5699 5697 5695 5694 5693 5692 5691 5690 5689 5688 5686 5684 5682 5680 5679 5677 5675 5674 5673 5671 5670 5668 5666 5663 5661 5659 5657 5655 5652 5651 5649 5648 5647 5647 5648 5649 5651 5653 5654 5655 5656 5658
5701 5697 5694 5692 5691 5690 5689 5688 5686 5685 5683 5681 5679 5676 5675 5673 5671 5670 5669 5667 5665 5663 5661 5659 5657 5655 5653 5651 5649 5646 5644 5642 5642 5641 5641 5642 5643 5645 5647 5649 5650 5652 5652
5699 5697 5693 5690 5688 5687 5685 5684 5682 5681 5679 5676 5673 5671 5670 5668 5666 5664 5662 5661 5659 5657 5655 5652 5650 5648 5646 5645 5643 5641 5639 5636 5636 5635 5635 5636 5638 5640 5642 5644 5645 5646 5647
5700 5697 5694 5690 5687 5685 5683 5680 5678 5676 5674 5671 5668 5666 5664 5662 5660 5658 5656 5654 5651 5649 5647 5645 5643 5640 5639 5638 5637 5635 5633 5631 5629 5629 5629 5630 5632 5634 5636 5638 5640 5640 5640
5702 5698 5694 5691 5687 5684 5681 5677 5675 5671 5668 5666 5663 5661 5658 5655 5653 5651 5648 5646 5643 5641 5639 5637 5635 5632 5631 5631 5631 5630 5627 5625 5623 5623 5622 5624 5625 5626 5627 5630 5632 5633 5634
5702 5698 5693 5689 5685 5681 5677 5674 5670 5666 5663 5660 5657 5654 5651 5648 5646 5643 5640 5638 5635 5633 5631 5629 5626 5625 5624 5624 5624 5623 5621 5619 5618 5616 5616 5615 5616 5618 5619 5620 5622 5623 5625
5704 5699 5694 5688 5682 5677 5673 5669 5664 5660 5657 5654 5651 5648 5645 5642 5639 5636 5633 5631 5628 5625 5623 5621 5618 5616 5615 5616 5615 5615 5613 5611 5610 5609 5608 5608 5608 5610 5611 5611 5611 5613 5615
5700 5695 5689 5683 5678 5673 5668 5663 5658 5654 5651 5649 5646 5643 5639 5635 5632 5630 5627 5624 5621 5618 5616 5613 5611 5608 5607 5607 5607 5606 5605 5603 5602 5601 5600 5600 5600 5601 5602 5600 5600 5601 5604
5696 5690 5684 5679 5674 5669 5663 5658 5653 5650 5648 5644 5640 5636 5633 5629 5626 5623 5619 5616 5613 5610 5607 5605 5603 5600 5599 5599 5598 5598 5596 5594 5593 5591 5590 5590 5591 5591 5592 5591 5591 5591 5593
5690 5685 5679 5673 5668 5663 5658 5653 5648 5646 5642 5637 5633 5629 5625 5623 5620 5615 5612 5608 5605 5601 5598 5595 5594 5592 5591 5590 5589 5589 5588 5587 5584 5582 5581 5580 5581 5582 5582 5581 5581 5582 5582
5684 5679 5673 5667 5661 5657 5653 5648 5644 5640 5635 5629 5625 5621 5618 5614 5611 5607 5603 5599 5596 5592 5589 5586 5584 5583 5582 5581 5581 5581 5579 5577 5574 5572 5572 5571 5571 5571 5570 5570 5570 5569 5567
5676 5671 5666 5660 5654 5649 5646 5643 5638 5633 5627 5622 5617 5613 5609 5606 5602 5598 5595 5590 5586 5583 5580 5578 5575 5574 5573 5571 5571 5569 5568 5567 5564 5562 5561 5560 5559 5558 5557 5557 5556 5555 5553
5668 5664 5659 5654 5649 5644 5639 5635 5631 5625 5619 5614 5610 5605 5601 5597 5593 5590 5586 5582 5579 5575 5572 5570 5567 5564 5563 5564 5563 5560 5558 5555 5553 5551 5548 5547 5546 5545 5544 5543 5543 5542 5541
5661 5656 5651 5647 5642 5637 5632 5628 5623 5618 5612 5606 5601 5597 5592 5588 5584 5580 5577 5575 5571 5569 5567 5564 5560 5558 5556 5555 5553 5551 5548 5546 5544 5540 5536 5534 5533 5532 5531 5531 5531 5530 5529